GFSFLT2_500_rhum_165.txt.gz
RH
28 24 25 29 29 27 28 36 36 32 28 28 27 27 33 42 48 56 56 30 26 25 26 26 27 25 22 20 22 27 27 24
32 32 32 29 30 31 30 28 34 32 31 30 29 31 34 39 43 50 60 67 54 37 30 30 30 31 28 26 24 26 27 26
44 42 38 37 31 30 32 33 31 34 36 34 33 33 37 39 40 46 60 67 73 53 45 39 36 36 36 30 24 27 31 31
49 49 47 46 46 44 38 32 35 38 38 37 42 43 44 47 46 49 54 61 76 83 62 47 45 36 37 38 34 25 29 36
48 45 43 45 46 44 47 44 41 39 38 37 37 38 42 48 55 61 64 66 72 79 90 82 77 64 55 44 44 37 24 31
35 34 34 39 43 51 55 53 52 51 50 48 49 50 51 51 56 60 64 69 64 60 76 79 100 98 80 87 63 51 38 21
34 36 36 35 35 39 47 49 48 48 47 47 45 42 42 42 43 45 53 65 68 69 71 68 61 79 79 82 96 74 58 40
42 42 40 36 38 37 37 39 41 39 38 37 34 34 34 33 34 36 40 43 42 50 53 69 70 61 70 71 90 97 82 60
48 44 31 26 24 26 31 30 29 31 34 36 37 36 35 35 35 35 35 36 36 36 35 38 48 68 86 89 78 98 100 92
52 50 32 30 23 19 18 16 16 17 18 18 22 24 24 24 23 22 22 26 31 35 37 37 35 47 60 88 68 72 90 97
41 41 32 32 31 31 30 30 28 23 16 14 14 15 17 19 22 24 24 23 23 22 27 29 32 37 34 50 84 71 70 81
33 32 29 25 20 18 19 21 24 26 28 23 15 12 13 14 12 12 13 14 17 20 19 22 22 25 33 34 38 59 61 65
19 19 18 18 18 19 22 26 29 28 25 24 22 18 15 13 14 16 14 12 11 10 14 12 13 14 21 28 33 92 85 55
20 22 23 23 20 20 26 33 33 32 29 29 29 29 30 31 30 29 26 25 22 20 19 14 12 15 10 14 22 35 59 92
27 27 28 26 23 23 24 28 32 38 42 39 35 31 29 27 26 24 22 22 20 20 20 20 16 14 17 11 10 19 34 37
35 34 32 28 28 27 31 34 33 28 23 22 21 21 20 19 18 17 16 18 16 16 21 24 20 16 13 15 11 9 21 26
37 32 31 34 34 31 25 20 19 22 25 27 27 27 26 23 22 20 20 20 21 20 21 25 29 27 18 11 18 15 11 17
42 40 37 34 32 27 23 29 35 34 28 28 26 24 20 14 10 9 8 8 8 11 13 18 21 24 22 21 12 16 18 15
40 40 42 38 32 32 35 38 36 34 30 22 14 8 5 4 3 3 3 3 3 3 3 4 8 13 20 16 18 15 14 19
48 41 35 36 43 41 44 44 42 20 11 6 5 4 3 3 4 18 25 30 39 32 26 17 6 3 5 13 10 14 16 14

GFSFLT2_500_rhum_168.txt.gz
RH
28 27 26 26 25 28 29 29 25 23 22 27 30 28 29 28 27 28 34 44 54 64 61 48 36 32 26 24 24 23 19 14
44 43 40 34 30 26 23 24 24 24 25 26 27 31 31 32 32 39 45 45 44 47 55 74 55 40 36 29 28 27 25 19
45 48 50 48 45 43 42 42 37 34 34 35 36 37 37 37 39 39 41 45 47 52 59 59 86 71 42 42 41 35 33 30
39 42 47 51 51 49 50 49 46 43 42 40 40 38 40 51 52 44 48 52 56 58 65 71 67 92 88 76 77 59 54 51
33 33 34 35 35 34 36 38 45 53 52 47 46 46 45 46 49 54 62 57 60 67 70 86 90 82 81 86 90 86 70 72
45 40 37 34 36 39 40 39 41 44 50 50 49 47 45 45 44 41 39 39 40 57 63 65 80 83 83 79 78 87 87 90
44 42 42 40 37 33 26 25 31 37 39 39 38 36 34 33 32 33 33 32 31 34 36 46 57 65 73 74 81 88 81 84
40 40 41 41 37 32 24 23 20 18 19 20 21 26 32 33 33 34 34 34 34 34 33 32 33 43 51 58 53 72 85 99
44 48 47 49 46 43 30 27 27 26 24 23 21 20 18 18 21 24 24 25 26 28 30 34 36 36 36 36 54 53 65 85
53 48 41 39 40 44 44 34 30 26 21 16 14 15 19 23 23 18 17 22 24 26 27 27 26 27 28 38 37 39 50 70
45 39 37 36 33 30 29 25 21 18 17 18 17 16 16 16 17 18 20 18 13 15 18 18 20 19 20 22 25 34 32 43
38 37 36 26 18 17 18 18 19 21 22 22 22 20 17 18 19 20 20 20 20 18 14 15 15 14 13 12 12 19 27 31
30 24 22 20 20 20 22 26 30 31 30 28 25 22 22 25 28 27 24 24 26 27 25 23 20 18 18 14 11 11 13 19
27 25 24 26 29 35 37 36 35 34 34 35 34 30 26 23 21 20 20 20 20 21 21 22 24 25 24 21 19 16 12 10
30 31 34 37 41 41 37 35 37 36 34 29 25 22 19 16 16 16 15 14 14 14 14 15 16 17 17 17 19 18 21 17
41 44 47 48 45 40 34 34 31 30 28 26 23 20 20 22 20 17 16 15 13 13 12 12 10 9 12 14 16 16 15 17
56 56 51 45 38 33 32 32 32 29 25 27 28 25 25 23 23 18 15 13 9 7 5 4 4 5 8 13 17 20 19 14
55 49 42 38 37 37 38 34 25 21 22 24 23 31 32 19 11 9 5 3 3 3 3 4 4 2 2 2 5 10 20 22
47 41 40 41 41 40 29 22 24 25 27 32 40 31 12 7 5 4 4 4 7 19 24 28 31 27 24 18 6 2 4 12
35 37 40 37 30 27 27 29 34 32 39 45 18 8 6 5 5 5 5 14 34 41 43 41 43 37 36 32 34 27 6 3

GFSFLT2_500_rhum_171.txt.gz
RH
37 36 32 28 28 29 28 25 22 22 23 24 24 24 27 27 28 31 32 35 40 47 48 48 54 61 64 65 42 28 26 24
30 33 35 37 41 43 43 42 40 35 32 31 32 34 40 41 43 41 43 40 43 45 46 46 50 57 65 84 75 34 31 33
31 33 39 43 44 46 47 49 49 47 46 43 40 40 41 39 47 57 47 50 45 45 54 56 56 59 70 76 92 79 65 67
35 37 40 40 37 35 34 35 34 33 34 37 44 46 44 42 43 46 45 48 51 63 75 68 68 76 79 88 88 90 85 87
37 40 41 38 36 34 31 30 30 29 28 28 32 35 38 42 42 40 37 36 37 37 35 35 42 74 93 92 96 91 88 80
32 36 39 38 37 37 37 36 34 25 22 22 22 24 25 25 24 25 28 32 34 35 35 34 34 32 37 44 83 88 80 83
37 39 37 35 34 35 35 39 41 35 27 26 25 24 23 22 20 20 19 18 18 19 24 31 35 37 37 33 40 55 93 82
43 39 37 37 39 39 35 30 30 32 35 36 30 28 26 23 18 16 16 17 19 20 18 17 21 23 29 33 32 38 50 81
45 43 41 40 40 37 32 27 27 26 25 29 33 31 25 22 20 19 17 18 16 16 16 19 18 15 20 26 25 26 29 40
34 32 34 40 40 38 37 35 33 30 22 17 17 17 18 20 22 25 25 24 22 19 17 16 18 20 16 14 21 25 25 26
21 24 28 32 33 33 31 25 19 18 18 21 25 26 26 25 23 23 24 24 23 21 20 18 17 17 20 19 15 16 17 21
25 25 26 26 24 23 21 20 22 23 26 30 32 35 33 26 24 25 26 26 24 23 21 20 20 19 18 20 21 19 15 15
24 26 28 30 30 27 27 29 32 37 43 43 41 34 27 25 24 22 21 21 21 19 18 16 16 15 14 15 17 23 27 28
26 27 30 35 36 36 38 42 49 50 45 39 33 29 28 27 26 24 21 17 13 11 9 9 11 10 8 7 7 9 11 15
33 32 33 40 44 47 53 55 51 45 37 32 29 26 26 23 17 14 14 14 14 15 14 13 13 14 12 9 7 6 6 10
38 43 51 54 57 62 58 51 42 33 29 27 26 22 19 15 14 14 15 17 23 23 20 16 13 10 8 6 6 5 5 4
49 58 61 64 61 56 48 34 25 23 25 24 21 19 19 21 21 24 30 28 22 15 8 3 3 3 3 2 2 2 2 2
60 66 64 58 51 37 23 20 22 24 22 20 19 24 27 24 27 26 15 10 6 4 4 4 3 4 4 8 10 11 15 13
69 60 54 53 32 20 18 22 24 21 20 23 29 32 35 34 28 13 8 7 7 6 5 5 4 7 22 24 30 21 20 20
64 62 57 39 26 20 22 23 20 20 26 32 33 38 41 34 12 9 9 9 9 7 6 6 6 19 27 21 22 28 39 44

GFSFLT2_500_rhum_174.txt.gz
RH
26 27 27 27 27 26 26 27 32 34 36 38 38 36 33 33 35 43 48 39 39 39 39 39 41 44 48 51 57 62 67 68
26 27 29 28 27 29 29 29 27 26 29 31 30 30 31 36 38 40 38 40 42 46 48 60 58 57 59 57 51 55 77 79
25 27 30 31 30 28 26 25 26 25 27 27 28 29 28 28 31 36 44 43 43 42 40 40 51 68 45 50 68 80 68 78
26 28 29 30 31 30 30 31 31 30 29 29 26 24 24 26 28 30 30 29 30 27 29 29 30 32 37 44 45 68 95 99
25 29 28 29 30 33 34 33 33 34 34 33 28 24 22 20 20 20 21 21 19 19 19 19 20 20 24 31 39 30 54 81
32 30 30 31 31 32 31 32 34 34 32 33 33 32 28 26 24 23 23 24 23 21 18 16 15 16 17 18 15 15 22 39
39 37 36 35 33 33 32 30 28 23 18 18 20 21 20 18 17 18 19 19 20 19 19 19 17 15 14 14 16 16 15 14
37 35 29 27 22 16 13 15 16 16 17 23 24 25 24 19 16 17 17 16 17 17 17 16 15 16 16 16 14 15 16 15
21 16 14 13 12 11 13 14 17 19 20 20 17 17 16 16 17 21 24 24 23 23 23 19 19 19 17 18 19 18 16 18
18 16 15 14 15 16 18 20 21 22 21 20 18 20 21 22 24 29 30 28 26 25 21 19 18 17 19 22 21 20 20 18
15 15 17 18 19 21 22 22 22 24 25 25 26 28 31 32 32 31 30 26 24 22 21 19 19 18 19 19 20 21 20 21
17 19 19 21 25 28 28 28 28 29 30 31 34 35 36 34 34 31 26 23 21 19 18 18 18 16 16 14 14 14 14 16
21 23 30 35 38 37 32 31 31 35 35 35 38 35 36 37 30 24 20 18 17 16 15 14 12 11 10 10 10 9 8 9
38 40 37 33 32 32 32 36 41 44 42 39 41 42 36 25 17 15 14 14 13 12 12 11 11 10 9 10 11 16 15 12
37 27 27 28 29 34 41 46 49 49 45 44 39 29 18 12 9 9 10 11 12 15 16 15 14 20 20 14 12 11 9 8
35 32 33 35 38 44 52 57 55 50 50 34 19 17 13 9 9 9 9 10 14 20 23 20 19 17 14 10 8 8 8 6
29 30 39 44 50 58 63 63 56 54 39 19 21 13 12 11 11 12 15 18 22 25 28 24 14 9 7 5 5 5 4 3
31 44 50 55 64 73 74 63 52 46 37 25 18 16 15 13 15 20 28 28 33 33 16 10 8 8 7 6 6 6 4 3
54 60 65 72 80 81 68 56 49 44 29 23 18 16 13 12 15 22 34 45 36 15 9 10 11 10 10 9 8 6 5 5
73 72 74 83 77 54 55 52 46 34 28 24 19 15 12 16 30 43 42 33 17 8 10 13 14 14 14 12 10 8 6 10